Погода в Калачинске

Погода в Калачинске : погода сейчас, прогноз погоды и архив. Всё, что Вы хотите узнать о погоде в Калачинске!

Хотите узнать прогноз погоды в Калачинске? Тогда Вам сюда: Погода в Калачинске

Поиск расширенной информации на нашем сайте:

Другие новости

Новости СМИ2

Главная страница сайта

Новости сайта

03.07.2017

Напоминаем, что на нашем специализированном сайте Метеоцентр.Азия вы можете получить высокодетализированные автоматические прогнозы погоды по пунктам России, СНГ и мира в авиационном формате (включающие направление и скорость ветра, видимость, явления погоды, количество и форму облачности, нижнюю и верхнюю границу облачности).


Погода в Калачинске - сегодня

Время (UTC), дата Ветер
(°,м/с) 
Видим.   Явления Облачность Т
(°С)
Тd
(°С)
f(%) Тe
(°С)
Pmin
(гПа)
dP
(гПа)
Po
(мм)
O2
(г/м3)
Тmin Tmax R s Состояние
почвы
00 21.11.17 220 (ЮЗ) 10 км  позёмок  10/10 600 м кучево-дожд. 
[Cb cap]
-2.3 -3.3 93 -5  1031.9  0.4  763  311           
03 21.11.17 220 (ЮЗ) 20000 м    10/10 600 м кучево-дожд. 
[Cb cap]
-2.9 -3.8 93 -6  1031.7  0.1  763  311  -2.9      11  равномерный
сухой снег
100% 
06 21.11.17 220 (ЮЗ) 20000 м    10/0 средняя 
[Ac und]
-1.5 -2.8 91 -5  1031.7  0.1  763  310  -2.9         
09 21.11.17 220 (ЮЗ) 20000 м    10/0 средняя, верхняя 
[Ac As|Ci fib]
-0.9 -2.9 86 -4  1031.5  -0.2  763  309           
12 21.11.17 220 (ЮЗ) 10 км  позёмок  10/0 средняя 
[Ac und]
-2.1 -4.4 84 -5  1032  0.4  763  310           
15 21.11.17 220 (ЮЗ) 10 км  позёмок  10/0 средняя 
[Ac und]
-2.7 -5 84 -6  1031.8  -0.2  763  311    -0.8       
18 21.11.17 230 (ЮЗ) 10 км    10/0 средняя 
[Ac und]
-2.5 -5.1 82 -5  1032  -0.2  763  311           
21 21.11.17 220 (ЮЗ) 10 км    10/0 средняя 
[Ac und]
-2.8 -5.7 80 -6  1032.4  0.5  764  312           
00 22.11.17 210 (ЮЗ) 10 км    ясно 
-5.8 -8.7 80 -7  1032.5  0.1  764  315           
03 22.11.17 190 (Ю) 20000 м    10/0 средняя, верхняя 
[Ac trans|Ci fib]
-8.1 -9.6 89 -8  1032.7  0.1  764  318  -8.1      12  равномерный
сухой снег
100% 
06 22.11.17 170 (Ю) 20000 м    10/0 средняя, верхняя 
[Ac trans|Ci fib]
-5.9 -8.9 79 -7  1032.6  764  315  -8.3         
09 22.11.17 180 (Ю) 20000 м    4/0 верхняя 
[Ci fib]
-1.2 -6.8 66 -2  1031.6  -0.7  763  310           
12 22.11.17 170 (Ю) 10 км    8/0 средняя, верхняя 
[Ac trans|Ci fib]
-4.4 -7.9 77 -6  1031.5  -0.3  763  313           
15 22.11.17 190 (Ю) 10 км    8/0 средняя, верхняя 
[Ac trans|Ci fib]
-4.7 -7.1 83 -6  1030.7  -0.8  762  313    -1.1       
18 22.11.17 150 (ЮВ) 10 км    6/0 верхняя 
[Ci fib]
-7 -8 93 -8  1030.3  -0.5  762  316           
21 22.11.17 160 (Ю) 10 км    ясно 
-8.9 -9.8 93 -9  1029.9  -0.5  762  318           
00 23.11.17 170 (Ю) 10 км  [диам. изморози 1 мм]  ясно 
-8.2 -9.4 91 -10  1029  -0.9  761  317           
03 23.11.17 110 (В) 20000 м  [диам. изморози 1 мм]  10/0 верхняя 
[Ci fib]
-11.9 -12.6 95 -12  1030.3  1.1  762  322  -11.9      12  равномерный
сухой снег
100% 
06 23.11.17 190 (Ю) 20000 м  [диам. изморози 0 мм]  ясно 
-5.6 -8.8 78 -5  1029.9  762  314  -13.5         
09 23.11.17 170 (Ю) 20000 м    ясно 
-3.4 -9.3 64 -3  1029.7  0.1  762  312           
12 23.11.17 150 (ЮВ) 10 км    ясно 
-7.9 -9.8 86 -8  1029.9  762  317           
15 23.11.17 160 (Ю) 10 км    ясно 
-9.1 -10.1 92 -11  1030.3  0.3  762  319    -3       
18 23.11.17 150 (ЮВ) 10 км    ясно 
-9.8 -10.6 94 -10  1030.4  762  319           
21 23.11.17 200 (Ю) 10 км    ясно 
-8.3 -9 95 -8  1030  -0.2  762  317           
00 24.11.17 170 (Ю) 10 км  [диам. изморози 2 мм]  ясно 
-12.3 -13.2 93 -12  1029.6  -0.7  761  322           
Время (UTC), дата Ветер
(°,м/с) 
Видим.   Явления Облачность Т
(°С)
Тd
(°С)
f(%) Тe
(°С)
Pmin
(гПа)
dP
(гПа)
Po
(мм)
O2
(г/м3)
Тmin Tmax R s Состояние
почвы

Для получения пояснительной информации подведите курсор к названию столбца.

ПОГОДА в Калачинске - архив

Всё, что Вы хотите узнать о погоде в Калачинске - удобно и подробно!

Выберите нужную дату (начиная с 1 января 2015* года) и нажмите кнопку "Найти".
Будут отображены архивные сводки погоды по пункту Калачинск, начиная с указанной даты.


Отображать данные в формате CSV (для использования в таблицах Excel)


Внимание! Наш архив погоды предназначен исключительно для личного некоммерческого использования в познавательных целях. Если Вам необходимы официальные справки о состоянии погоды (для производственных, юридических, коммерческих и т.п. целей), обращайтесь в органы Росгидромета.

*Примечание: данная дата относится к архиву по метеостанциям СССР (Россия, СНГ, Балтия).
Архив по метеостанциям Зарубежной Европы и Азии (кроме Китая) хранится 10 дней, по другим регионам земного шара (Китай, Африка, Америка, Австралия, Океания) - 1 день.

Калачинск - район местоположения метеостанции


Название, широта, долгота, высота метеостанции:
Калачинск 55°ш. 74.6°д. 110 м над ур. моря [Российская Федерация]

Дополнительная информация

В oтличие oт бoльшинства пoгoдных сайтoв мы публикуем пoдрoбную метеoинфoрмацию в детальнoм прoфессиoнальнoм фoрмате.

Характеристики температуры и влажнoсти вoздуха измеряются на высoте 2 м в тени вдали oт зданий и деревьев.
Скoрoсть ветра измеряется на высoте 10 м (на урoвне рoста челoвека скoрoсть ветра ниже в 1.5-2 раза). Если метеoстанция нахoдится в гoрoде или в лесу, тo скoрoсть ветра занижена на 2-4 м/с пo сравнению с oткрытым местoм. Скoрoсть ветра над акватoриями крупных рек и oзёр, а также на вершинах хoлмoв на 2-5 м/с выше, чем в oбычных услoвиях.
Атмoсфернoе давление в разных тoчках местнoсти мoжет значительнo oтличаться oт давления на метеoстанции, в зависимoсти oт услoвий рельефа (при пoдъёме на 10 м давление пoнижается примернo на 1 мм рт.ст.).